{"data":{"norad_id":69454,"intl_designator":"2026-127M","name":"STARLINK-37575","alt_names":[],"object_type":"PAYLOAD","status":"ACTIVE","operator":null,"country":"US","launch_date":"2026-06-08","launch_site_code":"AFETR","launch_vehicle":null,"mission":null,"orbit_class":"UNKNOWN","rcs_meters":null,"size_class":null,"mass_kg":null,"dimensions":null,"purposes":["comms"],"wikipedia_slug":null,"has_3d_model":false,"image_url":null,"decayed_at":null,"tle_current":{"epoch":"2026-09-20T00:21:08.980128Z","epoch_age_seconds":67427,"freshness":"FRESH","line1":"1 69454U 26127M   26263.01468727  .00025362  00000+0  75926-3 0  9999","line2":"2 69454  53.1590 168.2759 0001135  69.2064 290.9060 15.34397661 16118","mean_motion":15.34397661,"eccentricity":0.0001135,"inclination_deg":53.159,"raan_deg":168.2759,"arg_perigee_deg":69.2064,"mean_anomaly_deg":290.906,"bstar":0.00075926,"rev_number":1611,"period_min":93.847901140668,"perigee_km":461.93375606054,"apogee_km":463.48662837318,"semimajor_km":6840.8471922169,"source":"CELESTRAK","updated_at":"2026-09-20T09:00:44.200884Z"}}}